Location: Bijele Vode
(45.2833°N, 16.2000°E)
Time: 13:50:11
(UTC+00:00)

COSMO-SKYMED 1 - Pass Details

Date: 18 September 2020
Orbit: 621 x 623 km, 97.9° (Epoch: 31 October)

Event Time Altitude Azimuth Distance (km) Brightness Sun altitude
Rises 17:31:43 0° 8° (N) 2,916 6.0 -6.4°
Reaches altitude 10° 17:33:58 10° 3° (N) 2,004 5.3 -6.8°
Maximum altitude 17:38:10 49° 289° (WNW) 806 3.7 -7.5°
Drops below altitude 10° 17:42:21 10° 214° (SW) 1,988 5.5 -8.3°
Sets 17:44:34 0° 209° (SSW) 2,889 6.2 -8.6°
